| time (UTC) | temp C | wind direction | speed KPH | gust KPH | rain 1hr cm | rain 24hr cm | rain mn cm | humidity % | barometer mb |
| 20260506124601 | 11 | 233 | 4.8 | 17.7 | 0.00 | 1.04 | 0.08 | 88 | 1006.8 |
| 20260506123057 | 11 | 344 | 3.2 | 9.7 | 0.00 | 1.04 | 0.08 | 87 | 1006.7 |
| 20260506121558 | 11 | 12 | 1.6 | 9.7 | 0.00 | 1.04 | 0.08 | 89 | 1006.5 |
| 20260506120058 | 11 | 352 | 4.8 | 11.3 | 0.00 | 1.04 | 0.08 | 87 | 1006.4 |
| 20260506114607 | 11 | 306 | 1.6 | 6.4 | 0.00 | 1.04 | 0.08 | 87 | 1006.4 |
| 20260506113058 | 11 | 343 | 1.6 | 8.0 | 0.00 | 1.04 | 0.08 | 88 | 1006.2 |
| 20260506111558 | 11 | 0 | 0.0 | 12.9 | 0.00 | 1.04 | 0.08 | 89 | 1006.2 |
| 20260506110058 | 11 | 344 | 1.6 | 11.3 | 0.00 | 1.04 | 0.08 | 90 | 1006.1 |
| 20260506104606 | 11 | 224 | 1.6 | 16.1 | 0.00 | 1.04 | 0.08 | 90 | 1006.0 |
| 20260506103059 | 11 | 0 | 0.0 | 8.0 | 0.00 | 1.04 | 0.08 | 92 | 1005.8 |
| 20260506101559 | 11 | 238 | 4.8 | 11.3 | 0.00 | 1.04 | 0.08 | 91 | 1005.7 |
| 20260506100056 | 10 | 241 | 4.8 | 12.9 | 0.00 | 1.04 | 0.08 | 92 | 1005.6 |
| 20260506094559 | 11 | 326 | 0.0 | 8.0 | 0.00 | 1.04 | 0.08 | 93 | 1005.6 |
| 20260506093057 | 10 | 0 | 3.2 | 8.0 | 0.00 | 1.04 | 0.08 | 93 | 1005.4 |
| 20260506091602 | 10 | 262 | 3.2 | 12.9 | 0.00 | 1.04 | 0.08 | 93 | 1005.4 |
| 20260506084605 | 10 | 294 | 3.2 | 11.3 | 0.00 | 1.04 | 0.08 | 93 | 1005.1 |
| 20260506083058 | 10 | 0 | 4.8 | 9.7 | 0.00 | 1.04 | 0.08 | 94 | 1005.0 |
| 20260506081559 | 11 | 0 | 0.0 | 3.2 | 0.00 | 1.04 | 0.08 | 95 | 1004.9 |
| 20260506080106 | 11 | 319 | 0.0 | 4.8 | 0.00 | 1.04 | 0.08 | 95 | 1004.9 |
| 20260506073058 | 10 | 0 | 0.0 | 1.6 | 0.03 | 1.04 | 0.08 | 95 | 1005.0 |
| 20260506071604 | 10 | 0 | 3.2 | 8.0 | 0.00 | 1.02 | 0.08 | 94 | 1004.9 |
| 20260506061556 | 10 | 323 | 1.6 | 4.8 | 0.03 | 1.02 | 0.05 | 95 | 1004.4 |
| 20260506050106 | 10 | 0 | 0.0 | 0.0 | 0.00 | 0.97 | 0.00 | 96 | 1004.0 |
| 20260506044558 | 10 | 0 | 0.0 | 0.0 | 0.00 | 0.97 | 0.00 | 96 | 1004.0 |
| 20260506043100 | 10 | 0 | 0.0 | 0.0 | 0.00 | 0.97 | 0.00 | 96 | 1004.2 |
| 20260506041602 | 10 | 0 | 0.0 | 0.0 | 0.00 | 0.97 | 0.00 | 96 | 1004.1 |
| 20260506040058 | 10 | 0 | 0.0 | 1.6 | 0.00 | 0.97 | 0.00 | 95 | 1004.3 |
| 20260506034615 | 10 | 0 | 0.0 | 0.0 | 0.00 | 0.97 | 0.00 | 95 | 1004.5 |
| 20260506033058 | 10 | 0 | 0.0 | 0.0 | 0.00 | 0.97 | 0.00 | 95 | 1004.6 |
| 20260506031607 | 10 | 0 | 0.0 | 3.2 | 0.00 | 0.97 | 0.00 | 95 | 1004.5 |
| 20260506030100 | 10 | 93 | 0.0 | 3.2 | 0.00 | 0.97 | 0.00 | 95 | 1004.6 |
| 20260506024616 | 10 | 0 | 0.0 | 3.2 | 0.00 | 0.97 | 0.00 | 95 | 1004.7 |
| 20260506023056 | 10 | 0 | 0.0 | 1.6 | 0.00 | 0.97 | 0.00 | 95 | 1004.6 |
| 20260506021559 | 11 | 0 | 0.0 | 3.2 | 0.00 | 0.97 | 0.00 | 95 | 1004.6 |
| 20260506020100 | 11 | 0 | 0.0 | 3.2 | 0.00 | 0.97 | 0.00 | 95 | 1004.6 |
| 20260506014559 | 11 | 0 | 0.0 | 3.2 | 0.00 | 0.97 | 0.00 | 95 | 1004.8 |
| 20260506013110 | 11 | 0 | 0.0 | 3.2 | 0.00 | 0.97 | 0.00 | 95 | 1004.8 |
| 20260506011608 | 11 | 0 | 0.0 | 3.2 | 0.00 | 0.97 | 0.00 | 95 | 1004.9 |
| 20260506010058 | 11 | 0 | 0.0 | 4.8 | 0.00 | 0.97 | 0.00 | 95 | 1005.0 |
| 20260506004557 | 11 | 0 | 0.0 | 4.8 | 0.00 | 0.97 | 0.00 | 96 | 1005.0 |
| 20260506003058 | 11 | 17 | 0.0 | 4.8 | 0.00 | 0.97 | 0.00 | 96 | 1005.1 |
| 20260506001558 | 11 | 330 | 0.0 | 3.2 | 0.00 | 0.97 | 0.00 | 96 | 1005.2 |
| 20260505234557 | 11 | 0 | 0.0 | 3.2 | 0.00 | 0.97 | 0.00 | 96 | 1005.5 |
| 20260505233055 | 11 | 0 | 0.0 | 3.2 | 0.00 | 0.97 | 0.00 | 96 | 1005.6 |
| 20260505231559 | 11 | 188 | 0.0 | 1.6 | 0.00 | 0.97 | 0.00 | 96 | 1005.6 |
| 20260505230107 | 11 | 185 | 0.0 | 0.0 | 0.00 | 0.97 | 0.00 | 96 | 1005.6 |
| 20260505224600 | 11 | 0 | 0.0 | 0.0 | 0.00 | 0.97 | 0.00 | 95 | 1005.8 |
| 20260505223110 | 11 | 0 | 0.0 | 1.6 | 0.00 | 0.97 | 0.00 | 95 | 1005.9 |
| 20260505221559 | 11 | 0 | 0.0 | 1.6 | 0.00 | 0.97 | 0.00 | 96 | 1005.9 |
| 20260505220108 | 11 | 0 | 0.0 | 1.6 | 0.00 | 0.94 | 0.00 | 96 | 1006.1 |
| 20260505214556 | 11 | 0 | 0.0 | 0.0 | 0.00 | 0.94 | 0.94 | 96 | 1006.2 |
| 20260505213101 | 11 | 0 | 0.0 | 1.6 | 0.10 | 0.94 | 0.94 | 96 | 1006.2 |
| 20260505211559 | 11 | 0 | 0.0 | 0.0 | 0.25 | 0.94 | 0.94 | 96 | 1006.3 |
| 20260505210058 | 11 | 0 | 0.0 | 0.0 | 0.43 | 0.94 | 0.94 | 95 | 1006.5 |
| 20260505204606 | 11 | 0 | 0.0 | 0.0 | 0.53 | 0.94 | 0.94 | 95 | 1006.3 |
| 20260505203116 | 11 | 0 | 0.0 | 1.6 | 0.46 | 0.84 | 0.84 | 95 | 1006.4 |
| 20260505201603 | 11 | 0 | 0.0 | 0.0 | 0.30 | 0.69 | 0.69 | 95 | 1006.4 |
| 20260505200101 | 11 | 0 | 0.0 | 1.6 | 0.18 | 0.51 | 0.51 | 95 | 1006.4 |
| 20260505194612 | 11 | 0 | 0.0 | 3.2 | 0.08 | 0.38 | 0.38 | 95 | 1006.4 |
| 20260505193059 | 12 | 0 | 0.0 | 0.0 | 0.08 | 0.36 | 0.36 | 95 | 1006.2 |
| 20260505191601 | 12 | 0 | 0.0 | 0.0 | 0.10 | 0.36 | 0.36 | 95 | 1006.0 |
| 20260505190100 | 12 | 0 | 0.0 | 1.6 | 0.08 | 0.33 | 0.33 | 95 | 1006.1 |
| 20260505184601 | 12 | 0 | 0.0 | 0.0 | 0.05 | 0.30 | 0.30 | 95 | 1006.1 |
| 20260505183107 | 12 | 0 | 0.0 | 0.0 | 0.00 | 0.28 | 0.28 | 94 | 1006.1 |
| 20260505181558 | 12 | 0 | 0.0 | 0.0 | 0.00 | 0.25 | 0.25 | 94 | 1006.3 |
| 20260505180056 | 12 | 0 | 0.0 | 0.0 | 0.00 | 0.25 | 0.25 | 94 | 1006.3 |
| 20260505174604 | 12 | 0 | 0.0 | 1.6 | 0.00 | 0.25 | 0.25 | 94 | 1006.4 |
| 20260505173100 | 12 | 0 | 0.0 | 0.0 | 0.00 | 0.25 | 0.25 | 93 | 1006.4 |
| 20260505171558 | 12 | 0 | 0.0 | 0.0 | 0.00 | 0.25 | 0.25 | 93 | 1006.4 |
| 20260505170057 | 12 | 0 | 0.0 | 0.0 | 0.03 | 0.25 | 0.25 | 93 | 1006.4 |
| 20260505164604 | 12 | 0 | 0.0 | 0.0 | 0.05 | 0.25 | 0.25 | 93 | 1006.4 |
| 20260505163102 | 12 | 0 | 0.0 | 0.0 | 0.05 | 0.25 | 0.25 | 92 | 1006.4 |
| 20260505161557 | 12 | 0 | 0.0 | 3.2 | 0.08 | 0.23 | 0.23 | 91 | 1006.5 |
| 20260505153115 | 13 | 0 | 0.0 | 0.0 | 0.05 | 0.18 | 0.18 | 91 | 1006.8 |
| 20260505151604 | 13 | 0 | 0.0 | 3.2 | 0.03 | 0.15 | 0.15 | 90 | 1006.8 |
| 20260505140107 | 13 | 80 | 0.0 | 3.2 | 0.08 | 0.10 | 0.10 | 91 | 1007.1 |